Starlink 3917

operational
NORAD ID: 52588 Int'l Des: 2022-051 Owner: SPXS Country: US Constellation: starlink
LEOCIRCULAR

About Starlink 3917

Description loading...

Live Position

Loading 3D Globe...

Upcoming Passes

Altitude History

Altitude vs Time

uPlot chart will show altitude changes over time

Two-Line Element Set

1 52588U 22051BE 25278.19035759 -.00000004 00000-0 17809-4 0 9995
2 52588 53.2152 97.1812 0001338 91.2461 268.8685 15.08839871188116
Epoch: Oct 5, 2025 • Age: 14 hours

Current Status

Altitude 539.7 km
Velocity 7.60 km/s
Sub-Earth Point 17.72°N, 168.91°E
Launch Date May 13, 2022
Age 3.3 years
Type internet

Technical Details

Classification Payload
Mass 297.00 kg
Dry Mass 275.00 kg
Total Mass 297.00 kg
Length 0.20 m
Diameter 2.80 m
Span 9.00 m
Shape Box + pan
Manufacturer SPXS
Bus Type Starlink
Phase Status In Orbit
Owner/State SPXS/US

Large Constellations

Loading constellations...